MAS788 WMKK-VTBS

Flight info

Callsign MAS788
Flight time 1h 41m
Altitude 38000
Route BIKDU1D BIKDU Y501 RIGTO/N0462F370 M769 DANDO/N0460F380 M769 LEBIM LEBIM1C
Aircraft B38M/M-SDE1FGHILORVWXY/HB1

Departure

Time 2026-05-05 08:17
Airport Kuala Lumpur International Airport (WMKK)

Arrival

Time 2026-05-05 09:58
Airport Suvarnabhumi Airport (VTBS)
Time Latitude Longitude Altitude Speed Heading
2026-05-05 08:04 2.75401 101.70841 75 ft 0 kts 326°
2026-05-05 08:10 2.75393 101.70846 64 ft 4 kts 326°
2026-05-05 08:10 2.75371 101.70861 70 ft 4 kts 326°
2026-05-05 08:10 2.75349 101.70875 71 ft 4 kts 339°
2026-05-05 08:10 2.75325 101.70876 75 ft 4 kts 28°
2026-05-05 08:11 2.75309 101.70861 64 ft 1 kts 56°
2026-05-05 08:11 2.75307 101.70858 64 ft 0 kts 56°
2026-05-05 08:13 2.75308 101.70859 64 ft 1 kts 56°
2026-05-05 08:13 2.75323 101.70882 83 ft 8 kts 57°
2026-05-05 08:14 2.75376 101.70963 75 ft 20 kts 56°
2026-05-05 08:14 2.75475 101.71111 72 ft 31 kts 56°
2026-05-05 08:14 2.75596 101.71292 71 ft 32 kts 56°
2026-05-05 08:14 2.75630 101.71443 68 ft 22 kts 135°
2026-05-05 08:15 2.75504 101.71530 66 ft 23 kts 145°
2026-05-05 08:15 2.75364 101.71624 73 ft 25 kts 147°
2026-05-05 08:15 2.75216 101.71723 75 ft 26 kts 146°
2026-05-05 08:15 2.75062 101.71825 72 ft 27 kts 147°
2026-05-05 08:16 2.75018 101.71947 83 ft 19 kts 57°
2026-05-05 08:16 2.75120 101.72016 79 ft 21 kts 331°
2026-05-05 08:16 2.75338 101.71872 76 ft 71 kts 326°
2026-05-05 08:16 2.75962 101.71452 76 ft 143 kts 326°
2026-05-05 08:17 2.76923 101.70806 349 ft 177 kts 326°
2026-05-05 08:17 2.77945 101.70101 1128 ft 181 kts 323°
2026-05-05 08:17 2.79019 101.69388 1929 ft 190 kts 327°
2026-05-05 08:17 2.80315 101.68839 2390 ft 217 kts 345°
2026-05-05 08:18 2.81853 101.68484 2983 ft 237 kts 347°
2026-05-05 08:18 2.83517 101.68083 3625 ft 255 kts 347°
2026-05-05 08:18 2.85284 101.67643 4381 ft 267 kts 347°
2026-05-05 08:18 2.86825 101.67255 5181 ft 268 kts 347°
2026-05-05 08:19 2.88650 101.66787 6139 ft 273 kts 347°
2026-05-05 08:19 2.90505 101.66309 6992 ft 277 kts 347°
2026-05-05 08:19 2.92391 101.65819 7838 ft 282 kts 346°
2026-05-05 08:19 2.94310 101.65320 8677 ft 287 kts 346°
2026-05-05 08:20 2.96263 101.64813 9528 ft 293 kts 346°
2026-05-05 08:20 2.98253 101.64296 10275 ft 299 kts 346°
2026-05-05 08:20 3.00332 101.63755 10699 ft 318 kts 346°
2026-05-05 08:20 3.02522 101.63186 11128 ft 333 kts 346°
2026-05-05 08:21 3.04800 101.62593 11719 ft 340 kts 346°
2026-05-05 08:21 3.07068 101.62003 12456 ft 343 kts 346°
2026-05-05 08:21 3.09395 101.61398 13113 ft 348 kts 346°
2026-05-05 08:21 3.11752 101.60785 13770 ft 352 kts 347°
2026-05-05 08:22 3.14133 101.60165 14361 ft 355 kts 347°
2026-05-05 08:22 3.16533 101.59540 14963 ft 358 kts 347°
2026-05-05 08:22 3.18951 101.58911 15539 ft 361 kts 347°
2026-05-05 08:22 3.21391 101.58277 16118 ft 364 kts 347°
2026-05-05 08:23 3.23852 101.57636 16672 ft 367 kts 347°
2026-05-05 08:23 3.26329 101.56992 17206 ft 370 kts 347°
2026-05-05 08:23 3.28834 101.56340 17748 ft 373 kts 347°
2026-05-05 08:23 3.31352 101.55685 18240 ft 376 kts 347°
2026-05-05 08:24 3.33896 101.55023 18695 ft 378 kts 347°
2026-05-05 08:24 3.36453 101.54357 19133 ft 381 kts 347°
2026-05-05 08:24 3.39025 101.53688 19563 ft 383 kts 347°
2026-05-05 08:24 3.41616 101.53014 20001 ft 386 kts 347°
2026-05-05 08:25 3.43335 101.52566 20294 ft 387 kts 347°
2026-05-05 08:25 3.46811 101.51662 20864 ft 391 kts 347°
2026-05-05 08:25 3.49457 101.50973 21312 ft 393 kts 347°
2026-05-05 08:25 3.52110 101.50282 21746 ft 396 kts 347°
2026-05-05 08:26 3.54787 101.49585 22184 ft 398 kts 347°
2026-05-05 08:26 3.57479 101.48885 22610 ft 401 kts 347°
2026-05-05 08:26 3.59275 101.48417 22897 ft 403 kts 347°
2026-05-05 08:26 3.62000 101.47708 23328 ft 406 kts 347°
2026-05-05 08:27 3.64743 101.46994 23697 ft 408 kts 347°
2026-05-05 08:27 3.67501 101.46275 24076 ft 410 kts 347°
2026-05-05 08:27 3.70272 101.45554 24448 ft 413 kts 347°
2026-05-05 08:27 3.73058 101.44828 24819 ft 415 kts 346°
2026-05-05 08:28 3.75861 101.44098 25194 ft 418 kts 346°
2026-05-05 08:28 3.78687 101.43362 25559 ft 420 kts 346°
2026-05-05 08:28 3.81529 101.42622 25926 ft 422 kts 346°
2026-05-05 08:28 3.84371 101.41844 26293 ft 425 kts 341°
2026-05-05 08:29 3.87058 101.40684 26645 ft 428 kts 336°
2026-05-05 08:29 3.89784 101.39472 26982 ft 430 kts 337°
2026-05-05 08:29 3.92531 101.38252 27331 ft 433 kts 337°
2026-05-05 08:30 3.98066 101.35791 28019 ft 437 kts 337°
2026-05-05 08:30 4.00850 101.34552 28355 ft 440 kts 336°
2026-05-05 08:30 4.03655 101.33304 28687 ft 442 kts 336°
2026-05-05 08:30 4.06482 101.32046 29002 ft 445 kts 336°
2026-05-05 08:31 4.09314 101.30787 29329 ft 447 kts 337°
2026-05-05 08:31 4.12165 101.29518 29634 ft 449 kts 336°
2026-05-05 08:31 4.15032 101.28242 29924 ft 452 kts 336°
2026-05-05 08:31 4.17910 101.26962 30187 ft 454 kts 336°
2026-05-05 08:32 4.20804 101.25674 30463 ft 455 kts 336°
2026-05-05 08:32 4.23707 101.24381 30737 ft 457 kts 336°
2026-05-05 08:32 4.26612 101.23088 31011 ft 459 kts 336°
2026-05-05 08:32 4.29538 101.21785 31270 ft 460 kts 336°
2026-05-05 08:33 4.32465 101.20482 31523 ft 462 kts 336°
2026-05-05 08:33 4.35376 101.19186 31774 ft 463 kts 336°
2026-05-05 08:33 4.38327 101.17872 32018 ft 465 kts 336°
2026-05-05 08:33 4.41289 101.16553 32266 ft 467 kts 336°
2026-05-05 08:34 4.44266 101.15227 32493 ft 469 kts 336°
2026-05-05 08:34 4.47258 101.13894 32730 ft 470 kts 336°
2026-05-05 08:34 4.50247 101.12562 32961 ft 472 kts 336°
2026-05-05 08:34 4.53256 101.11222 33185 ft 474 kts 336°
2026-05-05 08:35 4.56276 101.09878 33418 ft 475 kts 337°
2026-05-05 08:35 4.59312 101.08569 33719 ft 474 kts 337°
2026-05-05 08:35 4.62350 101.07261 33996 ft 474 kts 337°
2026-05-05 08:35 4.65340 101.05972 34274 ft 473 kts 337°
2026-05-05 08:36 4.68360 101.04669 34565 ft 472 kts 337°
2026-05-05 08:36 4.71374 101.03368 34877 ft 470 kts 337°
2026-05-05 08:36 4.74372 101.02074 35151 ft 469 kts 337°
2026-05-05 08:36 4.77369 101.00780 35427 ft 468 kts 337°
2026-05-05 08:37 4.80362 100.99488 35688 ft 468 kts 337°
2026-05-05 08:37 4.83353 100.98197 35949 ft 467 kts 337°
2026-05-05 08:37 4.86340 100.96907 36203 ft 467 kts 337°
2026-05-05 08:37 4.89314 100.95623 36460 ft 466 kts 337°
2026-05-05 08:38 4.92292 100.94337 36706 ft 466 kts 337°
2026-05-05 08:38 4.95274 100.93048 36938 ft 466 kts 337°
2026-05-05 08:38 4.98245 100.91766 37180 ft 465 kts 337°
2026-05-05 08:38 5.01217 100.90481 37413 ft 465 kts 337°
2026-05-05 08:39 5.04157 100.89212 37648 ft 464 kts 337°
2026-05-05 08:39 5.07167 100.87911 37876 ft 464 kts 338°
2026-05-05 08:39 5.10091 100.86647 38040 ft 464 kts 338°
2026-05-05 08:40 5.15999 100.84094 38043 ft 461 kts 338°
2026-05-05 08:40 5.21897 100.81545 38037 ft 462 kts 338°
2026-05-05 08:41 5.27804 100.78991 38031 ft 462 kts 338°
2026-05-05 08:41 5.33725 100.76431 38029 ft 463 kts 338°
2026-05-05 08:42 5.39723 100.74072 38035 ft 462 kts 341°
2026-05-05 08:42 5.45769 100.71837 38020 ft 463 kts 341°
2026-05-05 08:43 5.51797 100.69591 38023 ft 461 kts 340°
2026-05-05 08:43 5.57810 100.67348 38020 ft 460 kts 340°
2026-05-05 08:44 5.63761 100.65128 38019 ft 459 kts 340°
2026-05-05 08:44 5.69738 100.62898 38024 ft 457 kts 340°
2026-05-05 08:45 5.75703 100.60672 38022 ft 456 kts 340°
2026-05-05 08:45 5.81646 100.58453 38015 ft 455 kts 340°
2026-05-05 08:46 5.87573 100.56240 38014 ft 454 kts 340°
2026-05-05 08:46 5.93500 100.54026 38008 ft 454 kts 340°
2026-05-05 08:47 5.99397 100.51824 37992 ft 454 kts 340°
2026-05-05 08:47 6.05356 100.49597 37984 ft 454 kts 340°
2026-05-05 08:48 6.11285 100.47382 37974 ft 455 kts 340°
2026-05-05 08:48 6.17180 100.45178 37971 ft 455 kts 340°
2026-05-05 08:49 6.23160 100.42942 37969 ft 456 kts 340°
2026-05-05 08:49 6.29067 100.40733 37976 ft 456 kts 340°
2026-05-05 08:50 6.35004 100.38512 37979 ft 456 kts 340°
2026-05-05 08:50 6.40956 100.36285 37984 ft 456 kts 340°
2026-05-05 08:51 6.46903 100.34059 37991 ft 456 kts 340°
2026-05-05 08:51 6.52842 100.31835 37991 ft 456 kts 341°
2026-05-05 08:52 6.58746 100.29625 37995 ft 455 kts 341°
2026-05-05 08:52 6.64686 100.27400 37996 ft 455 kts 341°
2026-05-05 08:53 6.70722 100.25580 37978 ft 451 kts 358°
2026-05-05 08:53 6.76970 100.25891 37985 ft 451 kts
2026-05-05 08:54 6.83226 100.26499 37998 ft 452 kts
2026-05-05 08:54 6.89469 100.27172 37996 ft 451 kts
2026-05-05 08:55 6.95716 100.27858 38007 ft 452 kts
2026-05-05 08:55 7.01963 100.28545 38006 ft 451 kts
2026-05-05 08:56 7.08198 100.29231 37998 ft 451 kts
2026-05-05 08:56 7.14438 100.29917 38000 ft 451 kts
2026-05-05 08:57 7.20644 100.30601 38004 ft 451 kts
2026-05-05 08:57 7.26892 100.31288 38006 ft 451 kts
2026-05-05 08:58 7.33139 100.31976 38004 ft 451 kts
2026-05-05 08:58 7.39380 100.32664 38005 ft 451 kts
2026-05-05 08:59 7.45625 100.33352 38006 ft 451 kts
2026-05-05 08:59 7.51870 100.33964 37998 ft 451 kts
2026-05-05 09:00 7.58163 100.34024 38015 ft 451 kts
2026-05-05 09:00 7.64445 100.34162 38018 ft 451 kts
2026-05-05 09:01 7.70674 100.34310 38015 ft 451 kts
2026-05-05 09:01 7.76939 100.34459 38018 ft 450 kts
2026-05-05 09:02 7.83198 100.34609 38018 ft 449 kts
2026-05-05 09:02 7.89454 100.34758 38019 ft 449 kts
2026-05-05 09:03 7.95689 100.34907 38017 ft 448 kts
2026-05-05 09:03 8.01924 100.35056 38016 ft 447 kts
2026-05-05 09:04 8.08108 100.35203 38013 ft 447 kts
2026-05-05 09:04 8.14317 100.35352 38020 ft 446 kts
2026-05-05 09:05 8.20519 100.35500 38027 ft 445 kts
2026-05-05 09:05 8.26717 100.35649 38018 ft 445 kts
2026-05-05 09:06 8.32903 100.35797 38019 ft 445 kts
2026-05-05 09:06 8.39094 100.35945 38022 ft 445 kts
2026-05-05 09:07 8.45289 100.36093 38024 ft 445 kts
2026-05-05 09:07 8.51486 100.36242 38026 ft 446 kts
2026-05-05 09:08 8.57661 100.36390 38025 ft 446 kts
2026-05-05 09:08 8.63870 100.36539 38028 ft 447 kts
2026-05-05 09:09 8.70087 100.36688 38024 ft 447 kts
2026-05-05 09:09 8.76310 100.36837 38029 ft 447 kts
2026-05-05 09:10 8.82530 100.36981 38026 ft 447 kts
2026-05-05 09:10 8.88760 100.37125 38030 ft 447 kts
2026-05-05 09:11 8.94985 100.37270 38034 ft 448 kts
2026-05-05 09:11 9.01187 100.37413 38035 ft 448 kts
2026-05-05 09:12 9.07418 100.37558 38038 ft 448 kts
2026-05-05 09:12 9.13649 100.37702 38040 ft 448 kts
2026-05-05 09:13 9.19890 100.37848 38047 ft 449 kts
2026-05-05 09:13 9.26140 100.37994 38051 ft 449 kts
2026-05-05 09:14 9.32395 100.38140 38054 ft 450 kts
2026-05-05 09:14 9.38660 100.38286 38057 ft 450 kts
2026-05-05 09:15 9.44938 100.38433 38059 ft 451 kts
2026-05-05 09:15 9.50163 100.38556 38058 ft 451 kts
2026-05-05 09:16 9.56450 100.38703 38055 ft 452 kts
2026-05-05 09:16 9.62753 100.38852 38056 ft 453 kts
2026-05-05 09:17 9.69061 100.39000 38056 ft 453 kts
2026-05-05 09:17 9.75380 100.39149 38055 ft 455 kts
2026-05-05 09:18 9.81674 100.39298 38053 ft 456 kts
2026-05-05 09:18 9.88019 100.39447 38051 ft 457 kts
2026-05-05 09:19 9.94385 100.39598 38043 ft 457 kts
2026-05-05 09:19 10.00744 100.39749 38043 ft 458 kts
2026-05-05 09:20 10.07116 100.39900 38039 ft 458 kts
2026-05-05 09:20 10.13494 100.40052 38042 ft 459 kts
2026-05-05 09:21 10.19874 100.40206 38040 ft 459 kts
2026-05-05 09:21 10.26261 100.40360 38042 ft 459 kts
2026-05-05 09:22 10.32649 100.40514 38038 ft 459 kts
2026-05-05 09:22 10.39037 100.40668 38038 ft 459 kts
2026-05-05 09:23 10.45376 100.40821 38039 ft 458 kts
2026-05-05 09:23 10.51746 100.40974 38039 ft 456 kts
2026-05-05 09:24 10.58085 100.41128 38038 ft 456 kts
2026-05-05 09:24 10.64425 100.41281 38039 ft 455 kts
2026-05-05 09:25 10.70756 100.41434 38032 ft 455 kts
2026-05-05 09:25 10.73911 100.41511 37877 ft 455 kts
2026-05-05 09:25 10.77078 100.41587 37815 ft 453 kts
2026-05-05 09:26 10.83408 100.41739 37843 ft 456 kts
2026-05-05 09:26 10.89758 100.41893 37840 ft 456 kts
2026-05-05 09:27 10.96107 100.42046 37839 ft 456 kts
2026-05-05 09:27 11.02465 100.42200 37837 ft 457 kts
2026-05-05 09:28 11.08774 100.42353 37837 ft 457 kts
2026-05-05 09:28 11.15140 100.42507 37839 ft 457 kts
2026-05-05 09:29 11.21503 100.42661 37838 ft 457 kts
2026-05-05 09:29 11.27871 100.42816 37838 ft 458 kts
2026-05-05 09:30 11.34244 100.42972 37842 ft 458 kts
2026-05-05 09:30 11.40602 100.43129 37836 ft 459 kts
2026-05-05 09:31 11.46984 100.43286 37834 ft 459 kts
2026-05-05 09:31 11.53371 100.43444 37835 ft 459 kts
2026-05-05 09:32 11.59757 100.43601 37835 ft 459 kts
2026-05-05 09:32 11.66143 100.43759 37834 ft 458 kts
2026-05-05 09:33 11.72528 100.43917 37835 ft 458 kts
2026-05-05 09:33 11.78897 100.44074 37835 ft 457 kts
2026-05-05 09:34 11.85256 100.44232 37834 ft 456 kts
2026-05-05 09:34 11.88424 100.44311 37473 ft 453 kts
2026-05-05 09:34 11.91596 100.44391 36550 ft 459 kts
2026-05-05 09:34 11.94790 100.44471 35915 ft 458 kts
2026-05-05 09:35 11.97915 100.44550 35479 ft 452 kts
2026-05-05 09:35 12.04165 100.44707 34443 ft 447 kts
2026-05-05 09:35 12.07275 100.44786 33899 ft 446 kts
2026-05-05 09:36 12.10378 100.44864 33300 ft 445 kts
2026-05-05 09:36 12.13467 100.44941 32750 ft 442 kts
2026-05-05 09:36 12.16537 100.45018 32237 ft 440 kts
2026-05-05 09:36 12.19586 100.45095 31727 ft 437 kts
2026-05-05 09:37 12.22616 100.45171 31213 ft 435 kts
2026-05-05 09:37 12.25637 100.45247 30696 ft 433 kts
2026-05-05 09:37 12.28647 100.45323 30190 ft 432 kts
2026-05-05 09:37 12.31641 100.45399 29661 ft 430 kts
2026-05-05 09:38 12.34634 100.45474 29083 ft 429 kts
2026-05-05 09:38 12.37608 100.45549 28584 ft 425 kts
2026-05-05 09:38 12.40552 100.45623 28107 ft 422 kts
2026-05-05 09:38 12.43436 100.45696 27641 ft 419 kts
2026-05-05 09:39 12.46345 100.45769 27174 ft 416 kts
2026-05-05 09:39 12.49223 100.45842 26711 ft 413 kts
2026-05-05 09:39 12.52095 100.45914 26261 ft 411 kts
2026-05-05 09:39 12.54939 100.45986 25811 ft 408 kts
2026-05-05 09:40 12.57771 100.46058 25368 ft 406 kts
2026-05-05 09:40 12.60596 100.46129 24932 ft 404 kts
2026-05-05 09:40 12.63366 100.46199 24503 ft 402 kts
2026-05-05 09:40 12.66159 100.46270 24075 ft 400 kts
2026-05-05 09:41 12.68931 100.46340 23664 ft 398 kts
2026-05-05 09:41 12.71700 100.46410 23212 ft 396 kts
2026-05-05 09:41 12.74449 100.46479 22745 ft 394 kts
2026-05-05 09:41 12.77181 100.46548 22330 ft 391 kts
2026-05-05 09:42 12.79885 100.46617 21920 ft 387 kts
2026-05-05 09:42 12.82565 100.46685 21526 ft 384 kts
2026-05-05 09:42 12.85222 100.46752 21131 ft 381 kts
2026-05-05 09:42 12.87868 100.46819 20747 ft 378 kts
2026-05-05 09:43 12.90487 100.46885 20360 ft 375 kts
2026-05-05 09:43 12.93088 100.46951 19980 ft 373 kts
2026-05-05 09:43 12.95674 100.47016 19612 ft 371 kts
2026-05-05 09:43 12.98247 100.47082 19219 ft 368 kts
2026-05-05 09:44 13.00801 100.47146 18845 ft 366 kts
2026-05-05 09:44 13.03346 100.47211 18467 ft 365 kts
2026-05-05 09:44 13.05879 100.47275 18090 ft 363 kts
2026-05-05 09:44 13.08382 100.47554 17156 ft 374 kts 17°
2026-05-05 09:45 13.10727 100.48718 16526 ft 377 kts 33°
2026-05-05 09:45 13.12944 100.50179 15823 ft 382 kts 33°
2026-05-05 09:45 13.15205 100.51669 15038 ft 389 kts 33°
2026-05-05 09:45 13.17504 100.53196 14224 ft 396 kts 33°
2026-05-05 09:46 13.19836 100.54751 13387 ft 403 kts 33°
2026-05-05 09:46 13.22213 100.56337 12453 ft 409 kts 33°
2026-05-05 09:46 13.24595 100.57927 11855 ft 407 kts 33°
2026-05-05 09:46 13.26950 100.59501 11370 ft 400 kts 33°
2026-05-05 09:47 13.29069 100.60917 10631 ft 405 kts 33°
2026-05-05 09:47 13.31415 100.62485 10168 ft 398 kts 33°
2026-05-05 09:47 13.33708 100.64018 9800 ft 390 kts 33°
2026-05-05 09:48 13.35957 100.65522 9476 ft 381 kts 33°
2026-05-05 09:48 13.38154 100.66991 9182 ft 371 kts 33°
2026-05-05 09:48 13.40309 100.68390 8916 ft 361 kts 27°
2026-05-05 09:48 13.42625 100.69167 8722 ft 350 kts 13°
2026-05-05 09:49 13.44963 100.69756 8530 ft 340 kts 14°
2026-05-05 09:49 13.47221 100.70343 8352 ft 330 kts 15°
2026-05-05 09:49 13.49392 100.70911 8048 ft 317 kts 15°
2026-05-05 09:49 13.51498 100.71462 7653 ft 306 kts 15°
2026-05-05 09:50 13.53535 100.71960 7349 ft 295 kts
2026-05-05 09:50 13.55524 100.71731 7023 ft 287 kts 336°
2026-05-05 09:50 13.57054 100.70485 6720 ft 283 kts 304°
2026-05-05 09:50 13.57666 100.68607 6555 ft 277 kts 270°
2026-05-05 09:51 13.57182 100.66761 6490 ft 265 kts 235°
2026-05-05 09:51 13.55838 100.65558 6397 ft 254 kts 205°
2026-05-05 09:51 13.54208 100.64882 6178 ft 253 kts 199°
2026-05-05 09:51 13.52546 100.64291 5735 ft 254 kts 191°
2026-05-05 09:52 13.50808 100.64392 5219 ft 254 kts 155°
2026-05-05 09:52 13.49354 100.65381 4775 ft 250 kts 139°
2026-05-05 09:52 13.48099 100.66601 4337 ft 247 kts 126°
2026-05-05 09:52 13.47176 100.68071 3914 ft 244 kts 119°
2026-05-05 09:53 13.46386 100.69580 3494 ft 242 kts 110°
2026-05-05 09:53 13.46154 100.71279 3144 ft 234 kts 82°
2026-05-05 09:53 13.46727 100.72757 2986 ft 218 kts 53°
2026-05-05 09:53 13.47883 100.73671 2824 ft 208 kts 21°
2026-05-05 09:54 13.49250 100.73817 2777 ft 197 kts 354°
2026-05-05 09:54 13.50602 100.73624 2599 ft 193 kts 353°
2026-05-05 09:54 13.51920 100.73430 2370 ft 194 kts 353°
2026-05-05 09:54 13.53269 100.73231 2183 ft 192 kts 353°
2026-05-05 09:55 13.54577 100.73190 2013 ft 192 kts
2026-05-05 09:55 13.55896 100.72971 1809 ft 191 kts 347°
2026-05-05 09:55 13.57168 100.72904 1669 ft 177 kts 10°
2026-05-05 09:55 13.58341 100.73224 1450 ft 173 kts 18°
2026-05-05 09:56 13.59491 100.73561 1216 ft 170 kts 14°
2026-05-05 09:56 13.60629 100.73851 1016 ft 164 kts 14°
2026-05-05 09:56 13.61718 100.74142 805 ft 159 kts 15°
2026-05-05 09:56 13.62752 100.74404 596 ft 159 kts 15°
2026-05-05 09:57 13.63813 100.74684 376 ft 156 kts 18°
2026-05-05 09:57 13.64851 100.74965 215 ft 152 kts 18°
2026-05-05 09:57 13.65867 100.75234 30 ft 148 kts 18°
2026-05-05 09:57 13.66751 100.75464 16 ft 105 kts 17°
2026-05-05 09:58 13.67247 100.75595 15 ft 52 kts 10°
2026-05-05 09:58 13.67493 100.75577 15 ft 18 kts 335°
2026-05-05 09:58 13.67620 100.75548 15 ft 19 kts 348°
2026-05-05 09:58 13.67751 100.75538 15 ft 19 kts 17°
2026-05-05 09:59 13.67886 100.75576 15 ft 21 kts 14°
2026-05-05 09:59 13.68036 100.75615 15 ft 23 kts 14°
2026-05-05 09:59 13.68200 100.75659 15 ft 25 kts 13°
2026-05-05 09:59 13.68375 100.75704 16 ft 25 kts 14°
2026-05-05 10:00 13.68541 100.75749 17 ft 26 kts 14°
2026-05-05 10:00 13.68714 100.75794 16 ft 25 kts 14°
2026-05-05 10:00 13.68814 100.75744 16 ft 18 kts 286°
2026-05-05 10:00 13.68840 100.75639 16 ft 8 kts 284°
2026-05-05 10:01 13.68860 100.75621 16 ft 4 kts 350°
2026-05-05 10:01 13.68898 100.75626 15 ft 6 kts 14°
2026-05-05 10:01 13.68926 100.75633 15 ft 0 kts 14°
2026-05-05 10:01 13.68930 100.75634 15 ft 0 kts 14°